Location: *
(52.2090°N, 4.1550°W)
Time: 01:42:31
(UTC+00:00)

Cosmos 1892 - Pass Details

Date: 19 July 2019
Orbit: 504 x 526 km, 82.5° (Epoch: 23 August)

Event Time Altitude Azimuth Distance (km) Brightness Sun altitude
Rises 21:50:06 0° 209° (SSW) 2,639 6.0 -9.8°
Reaches altitude 10° 21:52:20 10° 217° (SW) 1,752 5.2 -10.0°
Maximum altitude 21:55:56 38° 287° (WNW) 807 4.2 -10.3°
Drops below altitude 10° 21:59:33 10° 357° (N) 1,754 6.4 -10.6°
Sets 22:01:48 0° 6° (N) 2,641 7.2 -10.8°
